Location: Goll?ig?dem
(16.6773°N, 80.7332°E)
Time: 07:35:33
(UTC+00:00)

GPS 2-18 Rocket1 - Pass Details

Date: 21 April 2021
Orbit: 457 x 511 km, 20.9° (Epoch: 05 May)

Event Time Altitude Azimuth Distance (km) Brightness Sun altitude
Exits shadow 22:39:01 60° 128° (SE) 578 3.4 -23.3°
Drops below altitude 10° 22:42:34 10° 82° (E) 1,710 6.9 -22.5°
Sets 22:44:49 0° 79° (E) 2,593 8.2 -22.0°
